{"data":{"norad_id":54807,"intl_designator":"2022-175BB","name":"STARLINK-5410","alt_names":[],"object_type":"PAYLOAD","status":"ACTIVE","operator":null,"country":"US","launch_date":"2022-12-17","launch_site_code":"AFETR","launch_vehicle":null,"mission":null,"orbit_class":"UNKNOWN","rcs_meters":null,"size_class":null,"mass_kg":null,"dimensions":null,"purposes":["comms"],"wikipedia_slug":null,"has_3d_model":false,"image_url":null,"decayed_at":null,"tle_current":{"epoch":"2026-05-24T23:47:02.481216Z","epoch_age_seconds":82771,"freshness":"FRESH","line1":"1 54807U 22175BB  26144.99100094 -.00000498  00000+0 -13179-4 0  9997","line2":"2 54807  53.2155  46.2207 0001338  94.3009 265.8136 15.08844190191651","mean_motion":15.0884419,"eccentricity":0.0001338,"inclination_deg":53.2155,"raan_deg":46.2207,"arg_perigee_deg":94.3009,"mean_anomaly_deg":265.8136,"bstar":-1.3179e-5,"rev_number":19165,"period_min":95.437289651491,"perigee_km":538.80497115753,"apogee_km":540.65619252243,"semimajor_km":6917.86758184,"source":"CELESTRAK","updated_at":"2026-05-25T13:38:17.698570Z"}}}